POPACS 1

Last updated on Sat Jan 24 2026 00:03:52 GMT+0000 (Coordinated Universal Time)

1 39268U 13055D 26021.81096740 .01425461 -86095-6 68470-3 0 9994 2 39268 80.9441 157.9048 0049078 258.9893 100.5867 16.18153837649966

Satellite not in orbit